Retour au catalogue

CZ-2C DEB

ActifSSO
NORAD 37733·DEBRIS·🇨🇳 China

Lancé Jul 6, 2011 depuis Jiuquan Satellite Launch Center

Loading…

Prochains Passages (prochaines 24 heures)

TLE

FraisSource: Space-Track

Époque: Sep 14, 2026, 02:47 UTC

1 37733U 11030D   26257.11599802  .00002254  00000-0  61736-3 0  9994
2 37733  98.5723 216.4167 0123061 328.9242  88.7249 14.43805855792558

Suivez CZ-2C DEB en temps réel avec AllMySat

Download on the App Store